Regional Weather Roundup
Issued by NWS

Home | Current Version | Previous Version | Text Only | Print | Product List | Glossary On
Versions: 1 2 3 4 5 6 7 8 9 10 11 12 13 14 15 16 17 18 19 20 21 22 23 24 25 26 27 28 29 30 31 32 33 34 35 36 37 38 39 40 41 42 43 44 45 46 47 48 49 50
000
ASUS43 KDTX 290401
RWRMI
MICHIGAN HOURLY REGIONAL WEATHER ROUNDUP
NATIONAL WEATHER SERVICE DETROIT/PONTIAC MI
1200 AM EDT FRI APR 29 2016

NOTE: "FAIR" INDICATES FEW OR NO CLOUDS BELOW 12,000 FEET WITH NO
SIGNIFICANT WEATHER AND/OR OBSTRUCTION TO VISIBILITY.

MIZ047>049-052>055-059>063-066>070-074>076-081>083-290500-
SOUTHEAST LOWER MICHIGAN

CITY           SKY/WX    TMP DP  RH WIND       PRES   REMARKS
ADRIAN         CLOUDY    46  35  65 NE6       30.01S
ALMA           CLOUDY    39  35  84 N8        30.06S WCI  34
ANN ARBOR      CLOUDY    47  29  49 E5        30.01R
BAD AXE        CLOUDY    39  32  75 CALM      30.06S
CARO           CLOUDY    40  31  70 CALM      30.05S
DETROIT CITY   CLOUDY    47  30  51 NE6       30.02S
DETROIT        CLOUDY    48  30  49 N6        30.01F
FLINT          CLOUDY    46  30  53 NE10      30.04S
GROSSE ILE     CLOUDY    46  37  71 NE6       30.00S
HILLSDALE      CLOUDY    45  34  65 E7        30.00S
HOWELL         CLOUDY    45  28  51 NE6       30.02S

CITY           SKY/WX    TMP DP  RH WIND       PRES   REMARKS
JACKSON        CLOUDY    45  37  73 CALM      30.01S
LAMBERTVILLE   CLOUDY    49  35  60 E7        30.00S
LANSING        CLOUDY    42  35  76 NE7       30.04R
LAPEER         CLOUDY    41  32  69 CALM      30.04S
MASON          CLOUDY    44  33  64 NE5       30.02S
MONROE         CLOUDY    47  35  63 NE3       30.00S
MT. CLEMENS    CLOUDY    44  33  64 NE9       30.01S
PONTIAC        CLOUDY    44  29  55 NE8       30.01S
PORT HOPE        N/A     40  35  83 NE10      30.05S WCI  33
PORT HURON     CLOUDY    45  28  53 N5        30.03S
TRI CITIES     CLOUDY    43  33  68 NE9       30.07S
MIDLAND        CLOUDY    40  32  74 NE5       30.07S
TROY           CLOUDY    46  30  52 NE6       30.03S
SAGINAW HB     CLOUDY    41  32  70 NE7       30.06S
$$
MIZ043>046-050>051-056>058-064>065-071>073-077>080-290500-
SOUTHWEST LOWER MICHIGAN

CITY           SKY/WX    TMP DP  RH WIND       PRES   REMARKS
BATTLE CREEK   CLOUDY    45  39  79 N5        30.02F
BENTON HARBOR  CLOUDY    47  40  76 E8        30.00R
BIG RAPIDS     CLOUDY    41  31  68 E7        30.04F
COLDWATER      CLOUDY    46  37  72 E6        30.01R
FREMONT        CLOUDY    40  34  78 E13       30.04S WCI  33
HOLLAND        CLOUDY    44  37  76 E9        30.02F
GRAND RAPIDS   CLOUDY    42  36  79 E10       30.04S
IONIA          CLOUDY    40  34  80 NE6       30.04S
KALAMAZOO      CLOUDY    47  35  63 E9        30.01F
LUDINGTON      CLOUDY    42  33  69 NE6       30.06S
MARSHALL       CLOUDY    45  35  67 CALM      30.01S
MOUNT PLEASANT CLOUDY    39  32  76 NE5       30.06S
MUSKEGON       CLOUDY    43  34  70 E10       30.04R
$$
MIZ016>042-290500-
NORTHERN LOWER MICHIGAN

CITY           SKY/WX    TMP DP  RH WIND       PRES   REMARKS
ALPENA         CLOUDY    35  26  69 CALM      30.10S
BEAVER ISLAND  MOCLDY    40  25  55 E7        30.10S
BELLAIRE       CLOUDY    47  20  34 CALM      30.08S
CADILLAC       DRIZZLE   39  33  78 E3        30.05S
CHARLEVOIX     CLOUDY    43  24  46 CALM      30.12R
GAYLORD        CLOUDY    42  18  37 E5        30.06S
GRAYLING       CLOUDY    42  21  42 E6        30.08R
HARBOR SPRINGS CLOUDY    40  20  46 NE7       30.08F WCI  35
HOUGHTON LAKE  CLOUDY    40  26  57 E3        30.07R
MANISTEE       CLOUDY    43  28  56 CALM      30.07F
OSCODA         CLOUDY    41  28  59 N7        30.07F
PELLSTON       CLOUDY    36  25  64 NE7       30.10S WCI  30
ROGERS CITY    PTCLDY    32  29  88 CALM      30.11S
TRAVERSE CITY  CLOUDY    43  38  82 CALM      30.07S
$$
MIZ007>008-015-290500-
EASTERN UPPER MICHIGAN

CITY           SKY/WX    TMP DP  RH WIND       PRES   REMARKS
KINROSS          N/A     37  30  75 CALM      30.11S
MACKINAC ISLAN PTCLDY    37  21  51 E7        30.10S WCI  32
NEWBERRY       PTCLDY    38  30  71 N3        30.11S
S. S. MARIE    PTCLDY    38  30  73 S3        30.11R
MUNISING         N/A     37  33  85 N6        30.12F WCI  32
$$
MIZ004>006-011>014-085-290500-
CENTRAL UPPER MICHIGAN

CITY           SKY/WX    TMP DP  RH WIND       PRES   REMARKS
MANISTIQUE     MOCLDY    37  27  65 N6        30.10S WCI  33
ESCANABA       CLOUDY    45  27  49 N6        30.10S
MENOMINEE      CLOUDY    43  28  56 NE6       30.09S
SAWYER-GWINN   CLOUDY    33  28  82 N7        30.09F WCI  27
$$
MIZ001>003-009>011-084-290500-
WESTERN UPPER MICHIGAN

CITY           SKY/WX    TMP DP  RH WIND       PRES   REMARKS
IRON MOUNTAIN  CLOUDY    41  24  51 N6        30.09S
HOUGHTON       PTCLDY    31  26  82 NE3       30.12R
COPPER HARBOR    N/A     32  29  88 W5        30.14R WCI  27
IRONWOOD       PTCLDY    36  28  75 CALM      30.08S
$$

ABBREVIATIONS USED IN REMARKS
   TC - TEMPERATURE IN CELSIUS
  WCI - WIND CHILL INDEX
   HX - HEAT INDEX
  VSB - VISIBILITY





USA.gov is the U.S. government's official web portal to all federal, state and local government web resources and services.